DW2182 Weather Reports


Display with metric or nautical units.
time (UTC)temp
F
wind
direction
speed
MPH
gust
MPH
rain 1hr
in
rain 24hr
in
rain mn
in
humidity
%
barometer
mb
20260906165515 72 68 3.0 7.0 0.00 0.00 0.00 95 1018.0
20260906164516 73 45 3.0 6.0 0.00 0.00 0.00 94 1017.5
20260906163515 73 68 3.0 6.0 0.00 0.00 0.00 93 1017.4
20260906162516 73 68 2.0 5.0 0.00 0.00 0.00 94 1017.9
20260906161536 72 68 1.0 5.0 0.00 0.00 0.00 94 1017.8
20260906160536 72 90 2.0 4.0 0.00 0.00 0.00 94 1017.7
20260906155535 72 68 2.0 5.0 0.00 0.00 0.00 93 1017.7
20260906154556 73 45 2.0 4.0 0.00 0.00 0.00 93 1017.8
20260906153517 72 45 1.0 2.0 0.00 0.00 0.00 93 1017.7
20260906152536 72 45 2.0 5.0 0.00 0.00 0.00 93 1017.4
20260906151518 73 45 2.0 9.0 0.00 0.00 0.00 93 1017.1
20260906150518 73 68 2.0 5.0 0.00 0.00 0.00 92 1017.7
20260906145539 72 68 2.0 4.0 0.00 0.00 0.00 93 1017.6
20260906144518 72 45 2.0 3.0 0.00 0.00 0.00 93 1017.6
20260906143537 72 90 1.0 4.0 0.00 0.00 0.00 93 1017.6
20260906142518 72 90 2.0 8.0 0.00 0.00 0.00 93 1017.5
20260906141518 72 68 2.0 5.0 0.00 0.00 0.00 93 1017.6
20260906140517 72 45 2.0 5.0 0.00 0.00 0.00 93 1017.4
20260906135517 72 68 3.0 7.0 0.00 0.00 0.00 93 1017.4
20260906134537 72 68 4.0 9.0 0.00 0.00 0.00 92 1017.5
20260906133518 72 68 2.0 8.0 0.00 0.00 0.00 93 1017.3
20260906132518 72 68 3.0 7.0 0.00 0.00 0.00 93 1017.3
20260906131518 72 68 2.0 6.0 0.00 0.00 0.00 93 1017.2
20260906130518 71 68 2.0 9.0 0.00 0.00 0.00 94 1017.0
20260906125517 71 68 2.0 6.0 0.00 0.00 0.00 95 1017.0
20260906124517 70 45 1.0 3.0 0.00 0.00 0.00 95 1017.0
20260906123517 70 45 1.0 5.0 0.00 0.00 0.00 95 1017.0
20260906122518 70 0.0 0.0 0.00 0.00 0.00 96 1017.0
20260906121518 70 68 1.0 2.0 0.00 0.00 0.00 96 1017.0
20260906120517 70 68 1.0 3.0 0.00 0.00 0.00 96 1016.8
20260906115537 70 0.0 0.0 0.00 0.00 0.00 96 1016.7
20260906114517 70 0.0 1.0 0.00 0.00 0.00 96 1016.7
20260906113517 70 0.0 0.0 0.00 0.00 0.00 96 1016.8
20260906112518 70 0.0 0.0 0.00 0.00 0.00 96 1016.8
20260906111537 70 0.0 0.0 0.00 0.00 0.00 96 1016.8
20260906110538 70 0.0 0.0 0.00 0.00 0.00 96 1016.7
20260906105517 70 0.0 0.0 0.00 0.00 0.00 96 1016.6
20260906104517 71 0.0 0.0 0.00 0.00 0.00 96 1016.7
20260906103517 71 0.0 0.0 0.00 0.00 0.00 95 1016.7
20260906102517 71 0.0 0.0 0.00 0.00 0.00 95 1016.7
20260906101537 71 68 1.0 3.0 0.00 0.00 0.00 95 1016.9
20260906100537 71 68 1.0 4.0 0.00 0.00 0.00 95 1016.7
20260906095517 71 68 1.0 3.0 0.00 0.00 0.00 96 1016.4
20260906094517 71 68 2.0 4.0 0.00 0.00 0.00 96 1016.3
20260906093517 71 68 1.0 4.0 0.00 0.00 0.00 96 1016.3
20260906092517 71 68 1.0 5.0 0.00 0.00 0.00 96 1016.2
20260906091517 71 68 1.0 3.0 0.00 0.00 0.00 96 1016.2
20260906090517 71 0.0 0.0 0.00 0.00 0.00 96 1016.2
20260906085537 71 68 1.0 2.0 0.00 0.00 0.00 96 1016.1
20260906084517 71 0.0 2.0 0.00 0.00 0.00 96 1016.1
20260906083517 71 0.0 0.0 0.00 0.00 0.00 96 1016.1
20260906082517 71 0.0 2.0 0.00 0.00 0.00 96 1016.3
20260906081537 71 45 2.0 4.0 0.00 0.00 0.00 95 1016.3
20260906080537 72 68 1.0 5.0 0.00 0.00 0.00 95 1016.2
20260906075517 72 68 1.0 2.0 0.00 0.00 0.00 95 1016.0
20260906074517 72 68 1.0 4.0 0.00 0.00 0.00 95 1015.9
20260906073517 72 68 1.0 3.0 0.00 0.00 0.00 95 1016.1
20260906072517 72 68 1.0 3.0 0.00 0.00 0.00 95 1016.2
20260906071517 72 68 1.0 3.0 0.00 0.00 0.00 95 1016.2
20260906070517 72 68 1.0 6.0 0.00 0.00 0.00 95 1016.0
20260906065517 72 68 2.0 3.0 0.00 0.00 0.00 95 1015.9
20260906064517 72 45 2.0 5.0 0.00 0.00 0.00 95 1016.0
20260906063517 72 68 1.0 4.0 0.00 0.00 0.00 95 1016.2
20260906062557 72 68 1.0 2.0 0.00 0.00 0.00 95 1016.3
20260906061516 72 68 1.0 3.0 0.00 0.00 0.00 95 1016.5
20260906060517 72 0.0 0.0 0.00 0.00 0.00 95 1016.4
20260906055517 73 0.0 1.0 0.00 0.00 0.00 95 1016.4
20260906054517 73 68 1.0 2.0 0.00 0.00 0.00 95 1016.4
20260906053517 73 68 1.0 3.0 0.00 0.00 0.00 95 1016.3
20260906052517 73 68 1.0 2.0 0.00 0.00 0.00 95 1016.2
20260906051517 73 45 1.0 3.0 0.00 0.00 0.00 95 1016.2
20260906050516 73 23 1.0 3.0 0.00 0.00 0.00 95 1016.2
20260906045517 73 0.0 2.0 0.00 0.00 0.00 94 1016.1
20260906044537 73 0.0 2.0 0.00 0.00 0.00 94 1015.9
20260906043518 73 0.0 2.0 0.00 0.00 0.00 94 1015.8
20260906042518 73 68 1.0 2.0 0.00 0.00 0.00 94 1015.9
20260906041517 74 68 1.0 2.0 0.00 0.00 0.00 93 1015.8
20260906040517 74 0.0 2.0 0.00 0.00 0.00 93 1015.8
20260906035517 74 68 1.0 6.0 0.00 0.00 0.00 93 1015.7
20260906034517 74 68 1.0 3.0 0.00 0.00 0.00 92 1015.6
20260906033517 74 90 1.0 5.0 0.00 0.00 0.00 92 1015.6
20260906032537 74 45 2.0 3.0 0.00 0.00 0.00 92 1015.6
20260906031518 75 45 1.0 3.0 0.00 0.00 0.00 92 1015.8
20260906030517 75 68 2.0 5.0 0.00 0.00 0.00 91 1015.7
20260906025537 75 0.0 2.0 0.00 0.00 0.00 91 1015.8
20260906024537 76 0.0 1.0 0.00 0.00 0.00 91 1016.1
20260906023537 76 0.0 1.0 0.00 0.00 0.00 91 1016.2
20260906022517 76 45 1.0 2.0 0.00 0.00 0.00 91 1016.1
20260906021516 77 0.0 0.0 0.00 0.00 0.00 92 1015.9
20260906020557 77 0.0 0.0 0.00 0.00 0.00 91 1015.8
20260906015537 77 0.0 0.0 0.00 0.00 0.00 91 1015.7
20260906014517 77 0.0 0.0 0.00 0.00 0.00 91 1015.5
20260906013517 78 0.0 0.0 0.00 0.00 0.00 92 1015.3
20260906012517 78 0.0 0.0 0.00 0.00 0.00 92 1015.1
20260906011617 78 0.0 0.0 0.00 0.00 0.00 91 1015.0
20260906010516 78 0.0 0.0 0.00 0.00 0.00 91 1015.0
20260906005517 78 0.0 0.0 0.00 0.00 0.00 90 1014.9
20260906004517 79 0.0 0.0 0.00 0.00 0.00 90 1014.9
20260906003516 79 0.0 0.0 0.00 0.00 0.00 89 1015.0
20260906002516 79 0.0 0.0 0.00 0.00 0.00 89 1015.0
20260906001517 80 0.0 0.0 0.00 0.00 0.00 88 1014.9
20260906000517 80 0.0 1.0 0.00 0.00 0.00 88 1014.8
20260905235517 80 0.0 0.0 0.00 0.00 0.00 87 1014.7
20260905234516 81 0.0 1.0 0.00 0.00 0.00 87 1014.6
20260905233517 81 0.0 2.0 0.00 0.00 0.00 86 1014.6
20260905232516 81 68 1.0 3.0 0.00 0.00 0.00 85 1014.7
20260905231516 81 68 1.0 3.0 0.00 0.00 0.00 85 1014.7
20260905230517 81 68 2.0 6.0 0.00 0.00 0.00 84 1014.6
20260905225517 81 68 1.0 2.0 0.00 0.00 0.00 85 1014.7
20260905224516 81 45 1.0 3.0 0.00 0.00 0.00 85 1014.5
20260905223557 81 45 1.0 4.0 0.00 0.00 0.00 84 1014.4
20260905222517 81 68 2.0 6.0 0.00 0.00 0.00 83 1014.5
20260905221517 82 68 3.0 6.0 0.00 0.00 0.00 84 1014.5
20260905220517 82 68 2.0 5.0 0.00 0.00 0.00 84 1014.4
20260905215519 81 68 2.0 3.0 0.00 0.00 0.00 85 1014.4
20260905214536 82 68 2.0 7.0 0.00 0.00 0.00 83 1014.2
20260905213516 82 68 3.0 5.0 0.00 0.00 0.00 82 1014.0
20260905212516 82 68 3.0 7.0 0.00 0.00 0.00 82 1014.1
20260905211516 82 68 2.0 4.0 0.00 0.00 0.00 83 1014.1
20260905210516 81 68 2.0 4.0 0.00 0.00 0.00 84 1014.1
20260905205516 81 45 2.0 3.0 0.00 0.00 0.00 82 1014.3
20260905204537 81 45 2.0 4.0 0.00 0.00 0.00 81 1014.5
20260905203517 82 68 2.0 5.0 0.00 0.00 0.00 79 1014.5
20260905202516 82 45 1.0 3.0 0.00 0.00 0.00 81 1014.5
20260905201517 82 68 2.0 5.0 0.00 0.00 0.00 81 1014.5
20260905200517 81 45 2.0 4.0 0.00 0.00 0.00 82 1014.6
20260905195516 81 45 2.0 7.0 0.00 0.00 0.00 83 1014.6
20260905194516 81 45 2.0 6.0 0.00 0.00 0.00 82 1014.5
20260905193537 80 45 3.0 6.0 0.00 0.00 0.00 82 1014.3
20260905192516 81 45 4.0 9.0 0.00 0.00 0.00 82 1014.4
20260905191516 80 45 3.0 5.0 0.00 0.00 0.00 82 1014.6
20260905190516 80 45 3.0 6.0 0.00 0.00 0.00 83 1014.8
20260905185517 80 23 3.0 8.0 0.00 0.00 0.00 84 1014.7
20260905184537 79 45 2.0 7.0 0.00 0.00 0.00 85 1014.6
20260905183517 79 45 3.0 6.0 0.00 0.00 0.00 84 1014.7
20260905182536 78 45 4.0 7.0 0.00 0.00 0.00 85 1014.4
20260905181516 78 45 3.0 5.0 0.00 0.00 0.00 85 1014.7
20260905180516 78 45 2.0 5.0 0.00 0.00 0.00 86 1014.6
20260905175516 77 45 4.0 11.0 0.00 0.00 0.00 86 1014.7
20260905174516 78 45 3.0 7.0 0.00 0.00 0.00 87 1015.0
20260905173516 77 45 2.0 6.0 0.00 0.00 0.00 86 1015.1
20260905172516 76 45 4.0 9.0 0.00 0.00 0.00 89 1015.3
20260905171536 76 45 1.0 3.0 0.00 0.00 0.00 90 1015.6
20260905170536 75 45 2.0 5.0 0.00 0.00 0.00 91 1015.6